Regional Weather Roundup
Issued by NWS

Home | Current Version | Previous Version | Text Only | Print | Product List | Glossary On
Versions: 1 2 3 4 5 6 7 8 9 10 11 12 13 14 15 16 17 18 19 20 21 22 23 24 25 26 27 28 29 30 31 32 33 34 35 36 37 38 39 40 41 42 43 44 45 46 47 48 49 50
000
ASUS43 KBIS 240410
RWRND

NORTH DAKOTA REGIONAL WEATHER ROUNDUP
NATIONAL WEATHER SERVICE BISMARCK ND
1100 PM CDT MON MAY 23 2016

NOTE: "FAIR" INDICATES FEW OR NO CLOUDS BELOW 12,000 FEET WITH NO
SIGNIFICANT WEATHER AND/OR OBSTRUCTIONS TO VISIBILITY.


NDZ001>003-009>011-017-240500-
NORTHWEST NORTH DAKOTA

CITY           SKY/WX    TMP DP  RH WIND       PRES   REMARKS
WILLISTON      CLEAR     56  38  50 W9        29.74R
MINOT          PTCLDY    59  44  57 SW7       29.73R
MINOT AFB      PTCLDY    60  40  48 S2        29.72R
$$

NDZ018>021-031>035-040>046-240500-
SOUTHWEST NORTH DAKOTA

CITY           SKY/WX    TMP DP  RH WIND       PRES   REMARKS
BISMARCK       CLOUDY    60  49  66 NE6       29.77R
DICKINSON      CLEAR     45  34  65 W7        29.76R
GARRISON         N/A     53  40  61 NW8       29.74R
HETTINGER ARPT CLEAR     49  39  68 NW9       29.80R
$$

NDZ004>008-012>016-024-026-027-054-240500-
NORTHEAST NORTH DAKOTA

CITY           SKY/WX    TMP DP  RH WIND       PRES   REMARKS
GRAND FORKS    MOCLDY    66  49  54 NW14      29.72R
GRND FRKS AFB  MOCLDY    64  51  61 N5        29.72R
DEVILS LAKE    PTCLDY    60  52  74 SE8       29.72R
$$

NDZ022-023-025-028>030-036>039-047>053-240500-
SOUTHEAST NORTH DAKOTA

CITY           SKY/WX    TMP DP  RH WIND       PRES   REMARKS
FARGO          CLOUDY    70  45  40 E9        29.69R
JAMESTOWN      CLEAR     60  51  72 E6        29.71R
$$




USA.gov is the U.S. government's official web portal to all federal, state and local government web resources and services.